Year,Month,Day,Hour,Minute,Value (Times are PST for temperature in C)
2017,09,03,00,00,19.50
2017,09,03,00,01,19.60
2017,09,03,00,02,19.60
2017,09,03,00,03,19.60
2017,09,03,00,04,19.60
2017,09,03,00,05,19.60
2017,09,03,00,06,19.70
2017,09,03,00,07,19.70
2017,09,03,00,08,19.70
2017,09,03,00,09,19.70
2017,09,03,00,10,19.70
2017,09,03,00,11,19.70
2017,09,03,00,12,19.70
2017,09,03,00,13,19.70
2017,09,03,00,14,19.70
2017,09,03,00,15,19.70
2017,09,03,00,16,19.70
2017,09,03,00,17,19.70
2017,09,03,00,18,19.70
2017,09,03,00,19,19.70
2017,09,03,00,20,19.70
2017,09,03,00,21,19.70
2017,09,03,00,22,19.70
2017,09,03,00,23,19.70
2017,09,03,00,24,19.70
2017,09,03,00,25,19.70
2017,09,03,00,26,19.70
2017,09,03,00,27,19.70
2017,09,03,00,28,19.60
2017,09,03,00,29,19.60
2017,09,03,00,30,19.60
2017,09,03,00,31,19.60
2017,09,03,00,32,19.60
2017,09,03,00,33,19.60
2017,09,03,00,34,19.60
2017,09,03,00,35,19.50
2017,09,03,00,36,19.50
2017,09,03,00,37,19.50
2017,09,03,00,38,19.40
2017,09,03,00,39,19.40
2017,09,03,00,40,19.40
2017,09,03,00,41,19.40
2017,09,03,00,42,19.40
2017,09,03,00,43,19.40
2017,09,03,00,44,19.40
2017,09,03,00,45,19.40
2017,09,03,00,46,19.40
2017,09,03,00,47,19.40
2017,09,03,00,48,19.40
2017,09,03,00,49,19.40
2017,09,03,00,50,19.50
2017,09,03,00,51,19.50
2017,09,03,00,52,19.60
2017,09,03,00,53,19.60
2017,09,03,00,54,19.60
2017,09,03,00,55,19.60
2017,09,03,00,56,19.60
2017,09,03,00,57,19.70
2017,09,03,00,58,19.70
2017,09,03,00,59,19.70
2017,09,03,01,00,19.70
2017,09,03,01,01,19.70
2017,09,03,01,02,19.70
2017,09,03,01,03,19.70
2017,09,03,01,04,19.70
2017,09,03,01,05,19.80
2017,09,03,01,06,19.80
2017,09,03,01,07,19.80
2017,09,03,01,08,19.80
2017,09,03,01,09,19.80
2017,09,03,01,10,19.80
2017,09,03,01,11,19.80
2017,09,03,01,12,19.80
2017,09,03,01,13,19.80
2017,09,03,01,14,19.80
2017,09,03,01,15,19.80
2017,09,03,01,16,19.70
2017,09,03,01,17,19.70
2017,09,03,01,18,19.70
2017,09,03,01,19,19.70
2017,09,03,01,20,19.70
2017,09,03,01,21,19.70
2017,09,03,01,22,19.70
2017,09,03,01,23,19.70
2017,09,03,01,24,19.70
2017,09,03,01,25,19.60
2017,09,03,01,26,19.60
2017,09,03,01,27,19.60
2017,09,03,01,28,19.50
2017,09,03,01,29,19.50
2017,09,03,01,30,19.40
2017,09,03,01,31,19.40
2017,09,03,01,32,19.30
2017,09,03,01,33,19.20
2017,09,03,01,34,19.20
2017,09,03,01,35,19.10
2017,09,03,01,36,19.10
2017,09,03,01,37,19.00
2017,09,03,01,38,19.00
2017,09,03,01,39,18.90
2017,09,03,01,40,18.90
2017,09,03,01,41,18.90
2017,09,03,01,42,18.80
2017,09,03,01,43,18.80
2017,09,03,01,44,18.70
2017,09,03,01,45,18.70
2017,09,03,01,46,18.60
2017,09,03,01,47,18.60
2017,09,03,01,48,18.60
2017,09,03,01,49,18.50
2017,09,03,01,50,18.50
2017,09,03,01,51,18.40
2017,09,03,01,52,18.40
2017,09,03,01,53,18.40
2017,09,03,01,54,18.30
2017,09,03,01,55,18.30
2017,09,03,01,56,18.30
2017,09,03,01,57,18.30
2017,09,03,01,58,18.20
2017,09,03,01,59,18.20
2017,09,03,02,00,18.20
2017,09,03,02,01,18.20
2017,09,03,02,02,18.20
2017,09,03,02,03,18.20
2017,09,03,02,04,18.20
2017,09,03,02,05,18.20
2017,09,03,02,06,18.10
2017,09,03,02,07,18.10
2017,09,03,02,08,18.10
2017,09,03,02,09,18.10
2017,09,03,02,10,18.10
2017,09,03,02,11,18.10
2017,09,03,02,12,18.10
2017,09,03,02,13,18.10
2017,09,03,02,14,18.10
2017,09,03,02,15,18.10
2017,09,03,02,16,18.10
2017,09,03,02,17,18.10
2017,09,03,02,18,18.10
2017,09,03,02,19,18.10
2017,09,03,02,20,18.10
2017,09,03,02,21,18.10
2017,09,03,02,22,18.10
2017,09,03,02,23,18.10
2017,09,03,02,24,18.10
2017,09,03,02,25,18.10
2017,09,03,02,26,18.10
2017,09,03,02,27,18.10
2017,09,03,02,28,18.10
2017,09,03,02,29,18.10
2017,09,03,02,30,18.10
2017,09,03,02,31,18.10
2017,09,03,02,32,18.00
2017,09,03,02,33,18.00
2017,09,03,02,34,18.00
2017,09,03,02,35,18.00
2017,09,03,02,36,18.00
2017,09,03,02,37,18.00
2017,09,03,02,38,18.00
2017,09,03,02,39,18.00
2017,09,03,02,40,18.00
2017,09,03,02,41,18.00
2017,09,03,02,42,17.90
2017,09,03,02,43,17.90
2017,09,03,02,44,17.90
2017,09,03,02,45,17.90
2017,09,03,02,46,17.90
2017,09,03,02,47,17.90
2017,09,03,02,48,17.90
2017,09,03,02,49,17.90
2017,09,03,02,50,17.90
2017,09,03,02,51,17.90
2017,09,03,02,52,17.90
2017,09,03,02,53,17.90
2017,09,03,02,54,17.90
2017,09,03,02,55,17.90
2017,09,03,02,56,17.90
2017,09,03,02,57,17.90
2017,09,03,02,58,17.90
2017,09,03,02,59,17.90
2017,09,03,03,00,17.90
2017,09,03,03,01,17.90
2017,09,03,03,02,17.90
2017,09,03,03,03,17.90
2017,09,03,03,04,17.90
2017,09,03,03,05,17.90
2017,09,03,03,06,17.90
2017,09,03,03,07,18.00
2017,09,03,03,08,18.00
2017,09,03,03,09,18.00
2017,09,03,03,10,18.00
2017,09,03,03,11,18.00
2017,09,03,03,12,18.00
2017,09,03,03,13,18.00
2017,09,03,03,14,18.00
2017,09,03,03,15,18.00
2017,09,03,03,16,18.00
2017,09,03,03,17,18.10
2017,09,03,03,18,18.00
2017,09,03,03,19,18.10
2017,09,03,03,20,18.10
2017,09,03,03,21,18.00
2017,09,03,03,22,18.10
2017,09,03,03,23,18.10
2017,09,03,03,24,18.10
2017,09,03,03,25,18.10
2017,09,03,03,26,18.00
2017,09,03,03,27,18.00
2017,09,03,03,28,18.00
2017,09,03,03,29,18.00
2017,09,03,03,30,18.00
2017,09,03,03,31,18.00
2017,09,03,03,32,18.00
2017,09,03,03,33,18.00
2017,09,03,03,34,18.00
2017,09,03,03,35,17.90
2017,09,03,03,36,17.90
2017,09,03,03,37,17.90
2017,09,03,03,38,17.90
2017,09,03,03,39,17.90
2017,09,03,03,40,17.80
2017,09,03,03,41,17.80
2017,09,03,03,42,17.80
2017,09,03,03,43,17.80
2017,09,03,03,44,17.80
2017,09,03,03,45,17.70
2017,09,03,03,46,17.70
2017,09,03,03,47,17.70
2017,09,03,03,48,17.70
2017,09,03,03,49,17.70
2017,09,03,03,50,17.60
2017,09,03,03,51,17.60
2017,09,03,03,52,17.60
2017,09,03,03,53,17.60
2017,09,03,03,54,17.50
2017,09,03,03,55,17.50
2017,09,03,03,56,17.50
2017,09,03,03,57,17.50
2017,09,03,03,58,17.40
2017,09,03,03,59,17.40
2017,09,03,04,00,17.40
2017,09,03,04,01,17.40
2017,09,03,04,02,17.30
2017,09,03,04,03,17.30
2017,09,03,04,04,17.30
2017,09,03,04,05,17.30
2017,09,03,04,06,17.30
2017,09,03,04,07,17.30
2017,09,03,04,08,17.20
2017,09,03,04,09,17.20
2017,09,03,04,10,17.20
2017,09,03,04,11,17.20
2017,09,03,04,12,17.20
2017,09,03,04,13,17.20
2017,09,03,04,14,17.20
2017,09,03,04,15,17.20
2017,09,03,04,16,17.20
2017,09,03,04,17,17.10
2017,09,03,04,18,17.10
2017,09,03,04,19,17.10
2017,09,03,04,20,17.10
2017,09,03,04,21,17.10
2017,09,03,04,22,17.20
2017,09,03,04,23,17.20
2017,09,03,04,24,17.20
2017,09,03,04,25,17.20
2017,09,03,04,26,17.20
2017,09,03,04,27,17.20
2017,09,03,04,28,17.20
2017,09,03,04,29,17.20
2017,09,03,04,30,17.20
2017,09,03,04,31,17.20
2017,09,03,04,32,17.20
2017,09,03,04,33,17.20
2017,09,03,04,34,17.20
2017,09,03,04,35,17.20
2017,09,03,04,36,17.20
2017,09,03,04,37,17.20
2017,09,03,04,38,17.20
2017,09,03,04,39,17.20
2017,09,03,04,40,17.20
2017,09,03,04,41,17.20
2017,09,03,04,42,17.20
2017,09,03,04,43,17.10
2017,09,03,04,44,17.10
2017,09,03,04,45,17.10
2017,09,03,04,46,17.10
2017,09,03,04,47,17.10
2017,09,03,04,48,17.10
2017,09,03,04,49,17.10
2017,09,03,04,50,17.10
2017,09,03,04,51,17.10
2017,09,03,04,52,17.10
2017,09,03,04,53,17.10
2017,09,03,04,54,17.10
2017,09,03,04,55,17.10
2017,09,03,04,56,17.10
2017,09,03,04,57,17.10
2017,09,03,04,58,17.10
2017,09,03,04,59,17.20
2017,09,03,05,00,17.20
2017,09,03,05,01,17.20
2017,09,03,05,02,17.20
2017,09,03,05,03,17.20
2017,09,03,05,04,17.20
2017,09,03,05,05,17.20
2017,09,03,05,06,17.20
2017,09,03,05,07,17.20
2017,09,03,05,08,17.30
2017,09,03,05,09,17.30
2017,09,03,05,10,17.30
2017,09,03,05,11,17.30
2017,09,03,05,12,17.30
2017,09,03,05,13,17.30
2017,09,03,05,14,17.30
2017,09,03,05,15,17.30
2017,09,03,05,16,17.30
2017,09,03,05,17,17.40
2017,09,03,05,18,17.40
2017,09,03,05,19,17.40
2017,09,03,05,20,17.40
2017,09,03,05,21,17.40
2017,09,03,05,22,17.40
2017,09,03,05,23,17.40
2017,09,03,05,24,17.40
2017,09,03,05,25,17.50
2017,09,03,05,26,17.50
2017,09,03,05,27,17.50
2017,09,03,05,28,17.50
2017,09,03,05,29,17.50
2017,09,03,05,30,17.50
2017,09,03,05,31,17.50
2017,09,03,05,32,17.50
2017,09,03,05,33,17.50
2017,09,03,05,34,17.60
2017,09,03,05,35,17.60
2017,09,03,05,36,17.60
2017,09,03,05,37,17.60
2017,09,03,05,38,17.60
2017,09,03,05,39,17.60
2017,09,03,05,40,17.60
2017,09,03,05,41,17.60
2017,09,03,05,42,17.60
2017,09,03,05,43,17.60
2017,09,03,05,44,17.60
2017,09,03,05,45,17.60
2017,09,03,05,46,17.60
2017,09,03,05,47,17.60
2017,09,03,05,48,17.60
2017,09,03,05,49,17.60
2017,09,03,05,50,17.60
2017,09,03,05,51,17.60
2017,09,03,05,52,17.60
2017,09,03,05,53,17.60
2017,09,03,05,54,17.60
2017,09,03,05,55,17.60
2017,09,03,05,56,17.60
2017,09,03,05,57,17.60
2017,09,03,05,58,17.60
2017,09,03,05,59,17.60
2017,09,03,06,00,17.60
2017,09,03,06,01,17.60
2017,09,03,06,02,17.60
2017,09,03,06,03,17.60
2017,09,03,06,04,17.60
2017,09,03,06,05,17.60
2017,09,03,06,06,17.60
2017,09,03,06,07,17.60
2017,09,03,06,08,17.60
2017,09,03,06,09,17.70
2017,09,03,06,10,17.70
2017,09,03,06,11,17.70
2017,09,03,06,12,17.70
2017,09,03,06,13,17.70
2017,09,03,06,14,17.70
2017,09,03,06,15,17.70
2017,09,03,06,16,17.70
2017,09,03,06,17,17.70
2017,09,03,06,18,17.70
2017,09,03,06,19,17.70
2017,09,03,06,20,17.70
2017,09,03,06,21,17.70
2017,09,03,06,22,17.70
2017,09,03,06,23,17.70
2017,09,03,06,24,17.70
2017,09,03,06,25,17.70
2017,09,03,06,26,17.70
2017,09,03,06,27,17.70
2017,09,03,06,28,17.70
2017,09,03,06,29,17.70
2017,09,03,06,30,17.60
2017,09,03,06,31,17.60
2017,09,03,06,32,17.60
2017,09,03,06,33,17.60
2017,09,03,06,34,17.60
2017,09,03,06,35,17.60
2017,09,03,06,36,17.60
2017,09,03,06,37,17.50
2017,09,03,06,38,17.50
2017,09,03,06,39,17.50
2017,09,03,06,40,17.50
2017,09,03,06,41,17.50
2017,09,03,06,42,17.50
2017,09,03,06,43,17.50
2017,09,03,06,44,17.50
2017,09,03,06,45,17.50
2017,09,03,06,46,17.50
2017,09,03,06,47,17.50
2017,09,03,06,48,17.50
2017,09,03,06,49,17.50
2017,09,03,06,50,17.50
2017,09,03,06,51,17.50
2017,09,03,06,52,17.50
2017,09,03,06,53,17.60
2017,09,03,06,54,17.60
2017,09,03,06,55,17.60
2017,09,03,06,56,17.60
2017,09,03,06,57,17.60
2017,09,03,06,58,17.60
2017,09,03,06,59,17.60
2017,09,03,07,00,17.60
2017,09,03,07,01,17.60
2017,09,03,07,02,17.60
2017,09,03,07,03,17.60
2017,09,03,07,04,17.70
2017,09,03,07,05,17.70
2017,09,03,07,06,17.70
2017,09,03,07,07,17.70
2017,09,03,07,08,17.60
2017,09,03,07,09,17.60
2017,09,03,07,10,17.60
2017,09,03,07,11,17.60
2017,09,03,07,12,17.60
2017,09,03,07,13,17.60
2017,09,03,07,14,17.60
2017,09,03,07,15,17.60
2017,09,03,07,16,17.60
2017,09,03,07,17,17.60
2017,09,03,07,18,17.60
2017,09,03,07,19,17.60
2017,09,03,07,20,17.60
2017,09,03,07,21,17.60
2017,09,03,07,22,17.60
2017,09,03,07,23,17.60
2017,09,03,07,24,17.60
2017,09,03,07,25,17.60
2017,09,03,07,26,17.60
2017,09,03,07,27,17.60
2017,09,03,07,28,17.50
2017,09,03,07,29,17.50
2017,09,03,07,30,17.50
2017,09,03,07,31,17.50
2017,09,03,07,32,17.50
2017,09,03,07,33,17.50
2017,09,03,07,34,17.50
2017,09,03,07,35,17.50
2017,09,03,07,36,17.50
2017,09,03,07,37,17.50
2017,09,03,07,38,17.40
2017,09,03,07,39,17.40
2017,09,03,07,40,17.50
2017,09,03,07,41,17.40
2017,09,03,07,42,17.50
2017,09,03,07,43,17.40
2017,09,03,07,44,17.50
2017,09,03,07,45,17.50
2017,09,03,07,46,17.50
2017,09,03,07,47,17.50
2017,09,03,07,48,17.50
2017,09,03,07,49,17.50
2017,09,03,07,50,17.50
2017,09,03,07,51,17.60
2017,09,03,07,52,17.60
2017,09,03,07,53,17.60
2017,09,03,07,54,17.60
2017,09,03,07,55,17.60
2017,09,03,07,56,17.70
2017,09,03,07,57,17.70
2017,09,03,07,58,17.70
2017,09,03,07,59,17.70
2017,09,03,08,00,17.80
2017,09,03,08,01,17.80
2017,09,03,08,02,17.80
2017,09,03,08,03,17.90
2017,09,03,08,04,17.90
2017,09,03,08,05,18.00
2017,09,03,08,06,18.00
2017,09,03,08,07,18.10
2017,09,03,08,08,18.10
2017,09,03,08,09,18.20
2017,09,03,08,10,18.20
2017,09,03,08,11,18.30
2017,09,03,08,12,18.40
2017,09,03,08,13,18.40
2017,09,03,08,14,18.50
2017,09,03,08,15,18.60
2017,09,03,08,16,18.60
2017,09,03,08,17,18.70
2017,09,03,08,18,18.80
2017,09,03,08,19,18.80
2017,09,03,08,20,18.90
2017,09,03,08,21,19.00
2017,09,03,08,22,19.10
2017,09,03,08,23,19.20
2017,09,03,08,24,19.20
2017,09,03,08,25,19.30
2017,09,03,08,26,19.40
2017,09,03,08,27,19.40
2017,09,03,08,28,19.50
2017,09,03,08,29,19.60
2017,09,03,08,30,19.60
2017,09,03,08,31,19.70
2017,09,03,08,32,19.80
2017,09,03,08,33,19.80
2017,09,03,08,34,19.90
2017,09,03,08,35,20.00
2017,09,03,08,36,20.00
2017,09,03,08,37,20.10
2017,09,03,08,38,20.20
2017,09,03,08,39,20.20
2017,09,03,08,40,20.30
2017,09,03,08,41,20.30
2017,09,03,08,42,20.40
2017,09,03,08,43,20.50
2017,09,03,08,44,20.50
2017,09,03,08,45,20.60
2017,09,03,08,46,20.60
2017,09,03,08,47,20.70
2017,09,03,08,48,20.70
2017,09,03,08,49,20.80
2017,09,03,08,50,20.80
2017,09,03,08,51,20.80
2017,09,03,08,52,20.90
2017,09,03,08,53,20.90
2017,09,03,08,54,20.90
2017,09,03,08,55,21.00
2017,09,03,08,56,21.00
2017,09,03,08,57,21.10
2017,09,03,08,58,21.10
2017,09,03,08,59,21.20
2017,09,03,09,00,21.20
2017,09,03,09,01,21.30
2017,09,03,09,02,21.30
2017,09,03,09,03,21.30
2017,09,03,09,04,21.40
2017,09,03,09,05,21.40
2017,09,03,09,06,21.50
2017,09,03,09,07,21.50
2017,09,03,09,08,21.60
2017,09,03,09,09,21.60
2017,09,03,09,10,21.70
2017,09,03,09,11,21.80
2017,09,03,09,12,21.80
2017,09,03,09,13,21.80
2017,09,03,09,14,21.90
2017,09,03,09,15,21.90
2017,09,03,09,16,22.00
2017,09,03,09,17,22.10
2017,09,03,09,18,22.10
2017,09,03,09,19,22.10
2017,09,03,09,20,22.20
2017,09,03,09,21,22.20
2017,09,03,09,22,22.20
2017,09,03,09,23,22.30
2017,09,03,09,24,22.30
2017,09,03,09,25,22.30
2017,09,03,09,26,22.30
2017,09,03,09,27,22.40
2017,09,03,09,28,22.40
2017,09,03,09,29,22.40
2017,09,03,09,30,22.40
2017,09,03,09,31,22.40
2017,09,03,09,32,22.50
2017,09,03,09,33,22.50
2017,09,03,09,34,22.50
2017,09,03,09,35,22.50
2017,09,03,09,36,22.50
2017,09,03,09,37,22.60
2017,09,03,09,38,22.60
2017,09,03,09,39,22.60
2017,09,03,09,40,22.70
2017,09,03,09,41,22.70
2017,09,03,09,42,22.80
2017,09,03,09,43,22.80
2017,09,03,09,44,22.80
2017,09,03,09,45,22.80
2017,09,03,09,46,22.90
2017,09,03,09,47,22.90
2017,09,03,09,48,22.90
2017,09,03,09,49,22.90
2017,09,03,09,50,22.90
2017,09,03,09,51,22.90
2017,09,03,09,52,22.90
2017,09,03,09,53,23.00
2017,09,03,09,54,23.00
2017,09,03,09,55,23.10
2017,09,03,09,56,23.10
2017,09,03,09,57,23.20
2017,09,03,09,58,23.20
2017,09,03,09,59,23.30
2017,09,03,10,00,23.30
2017,09,03,10,01,23.30
2017,09,03,10,02,23.30
2017,09,03,10,03,23.40
2017,09,03,10,04,23.40
2017,09,03,10,05,23.50
2017,09,03,10,06,23.50
2017,09,03,10,07,23.60
2017,09,03,10,08,23.60
2017,09,03,10,09,23.60
2017,09,03,10,10,23.60
2017,09,03,10,11,23.70
2017,09,03,10,12,23.70
2017,09,03,10,13,23.70
2017,09,03,10,14,23.80
2017,09,03,10,15,23.80
2017,09,03,10,16,23.80
2017,09,03,10,17,23.90
2017,09,03,10,18,23.90
2017,09,03,10,19,24.00
2017,09,03,10,20,24.00
2017,09,03,10,21,24.10
2017,09,03,10,22,24.10
2017,09,03,10,23,24.10
2017,09,03,10,24,24.10
2017,09,03,10,25,24.10
2017,09,03,10,26,24.10
2017,09,03,10,27,24.10
2017,09,03,10,28,24.10
2017,09,03,10,29,24.10
2017,09,03,10,30,24.10
2017,09,03,10,31,24.10
2017,09,03,10,32,24.10
2017,09,03,10,33,24.20
2017,09,03,10,34,24.20
2017,09,03,10,35,24.20
2017,09,03,10,36,24.30
2017,09,03,10,37,24.30
2017,09,03,10,38,24.30
2017,09,03,10,39,24.40
2017,09,03,10,40,24.40
2017,09,03,10,41,24.40
2017,09,03,10,42,24.40
2017,09,03,10,43,24.50
2017,09,03,10,44,24.50
2017,09,03,10,45,24.50
2017,09,03,10,46,24.60
2017,09,03,10,47,24.60
2017,09,03,10,48,24.60
2017,09,03,10,49,24.60
2017,09,03,10,50,24.60
2017,09,03,10,51,24.60
2017,09,03,10,52,24.60
2017,09,03,10,53,24.60
2017,09,03,10,54,24.70
2017,09,03,10,55,24.70
2017,09,03,10,56,24.70
2017,09,03,10,57,24.60
2017,09,03,10,58,24.60
2017,09,03,10,59,24.60
2017,09,03,11,00,24.60
2017,09,03,11,01,24.60
2017,09,03,11,02,24.60
2017,09,03,11,03,24.60
2017,09,03,11,04,24.60
2017,09,03,11,05,24.60
2017,09,03,11,06,24.70
2017,09,03,11,07,24.70
2017,09,03,11,08,24.60
2017,09,03,11,09,24.60
2017,09,03,11,10,24.60
2017,09,03,11,11,24.60
2017,09,03,11,12,24.60
2017,09,03,11,13,24.50
2017,09,03,11,14,24.50
2017,09,03,11,15,24.50
2017,09,03,11,16,24.50
2017,09,03,11,17,24.40
2017,09,03,11,18,24.40
2017,09,03,11,19,24.40
2017,09,03,11,20,24.40
2017,09,03,11,21,24.40
2017,09,03,11,22,24.40
2017,09,03,11,23,24.50
2017,09,03,11,24,24.50
2017,09,03,11,25,24.60
2017,09,03,11,26,24.70
2017,09,03,11,27,24.80
2017,09,03,11,28,24.80
2017,09,03,11,29,25.00
2017,09,03,11,30,25.10
2017,09,03,11,31,25.20
2017,09,03,11,32,25.30
2017,09,03,11,33,25.40
2017,09,03,11,34,25.50
2017,09,03,11,35,25.60
2017,09,03,11,36,25.60
2017,09,03,11,37,25.70
2017,09,03,11,38,25.70
2017,09,03,11,39,25.80
2017,09,03,11,40,25.80
2017,09,03,11,41,25.80
2017,09,03,11,42,25.80
2017,09,03,11,43,25.80
2017,09,03,11,44,25.80
2017,09,03,11,45,25.90
2017,09,03,11,46,25.90
2017,09,03,11,47,25.90
2017,09,03,11,48,26.00
2017,09,03,11,49,26.00
2017,09,03,11,50,26.00
2017,09,03,11,51,26.00
2017,09,03,11,52,26.10
2017,09,03,11,53,26.10
2017,09,03,11,54,26.10
2017,09,03,11,55,26.20
2017,09,03,11,56,26.10
2017,09,03,11,57,26.10
2017,09,03,11,58,26.10
2017,09,03,11,59,26.10
2017,09,03,12,00,26.00
2017,09,03,12,01,26.00
2017,09,03,12,02,26.00
2017,09,03,12,03,25.90
2017,09,03,12,04,25.90
2017,09,03,12,05,25.90
2017,09,03,12,06,25.80
2017,09,03,12,07,25.70
2017,09,03,12,08,25.60
2017,09,03,12,09,25.60
2017,09,03,12,10,25.50
2017,09,03,12,11,25.50
2017,09,03,12,12,25.40
2017,09,03,12,13,25.40
2017,09,03,12,14,25.40
2017,09,03,12,15,25.40
2017,09,03,12,16,25.40
2017,09,03,12,17,25.40
2017,09,03,12,18,25.40
2017,09,03,12,19,25.50
2017,09,03,12,20,25.50
2017,09,03,12,21,25.50
2017,09,03,12,22,25.60
2017,09,03,12,23,25.60
2017,09,03,12,24,25.60
2017,09,03,12,25,25.60
2017,09,03,12,26,25.60
2017,09,03,12,27,25.60
2017,09,03,12,28,25.50
2017,09,03,12,29,25.40
2017,09,03,12,30,25.40
2017,09,03,12,31,25.40
2017,09,03,12,32,25.40
2017,09,03,12,33,25.40
2017,09,03,12,34,25.30
2017,09,03,12,35,25.30
2017,09,03,12,36,25.30
2017,09,03,12,37,25.40
2017,09,03,12,38,25.50
2017,09,03,12,39,25.50
2017,09,03,12,40,25.60
2017,09,03,12,41,25.70
2017,09,03,12,42,25.80
2017,09,03,12,43,25.80
2017,09,03,12,44,25.90
2017,09,03,12,45,26.00
2017,09,03,12,46,26.00
2017,09,03,12,47,26.10
2017,09,03,12,48,26.10
2017,09,03,12,49,26.10
2017,09,03,12,50,26.10
2017,09,03,12,51,26.20
2017,09,03,12,52,26.20
2017,09,03,12,53,26.20
2017,09,03,12,54,26.30
2017,09,03,12,55,26.30
2017,09,03,12,56,26.30
2017,09,03,12,57,26.30
2017,09,03,12,58,26.40
2017,09,03,12,59,26.40
2017,09,03,13,00,26.50
2017,09,03,13,01,26.60
2017,09,03,13,02,26.70
2017,09,03,13,03,26.70
2017,09,03,13,04,26.80
2017,09,03,13,05,26.90
2017,09,03,13,06,26.90
2017,09,03,13,07,26.90
2017,09,03,13,08,26.90
2017,09,03,13,09,26.90
2017,09,03,13,10,26.90
2017,09,03,13,11,26.90
2017,09,03,13,12,26.90
2017,09,03,13,13,26.90
2017,09,03,13,14,27.00
2017,09,03,13,15,27.00
2017,09,03,13,16,27.10
2017,09,03,13,17,27.20
2017,09,03,13,18,27.30
2017,09,03,13,19,27.30
2017,09,03,13,20,27.40
2017,09,03,13,21,27.50
2017,09,03,13,22,27.60
2017,09,03,13,23,27.70
2017,09,03,13,24,27.70
2017,09,03,13,25,27.80
2017,09,03,13,26,27.90
2017,09,03,13,27,28.00
2017,09,03,13,28,28.00
2017,09,03,13,29,28.10
2017,09,03,13,30,28.20
2017,09,03,13,31,28.20
2017,09,03,13,32,28.30
2017,09,03,13,33,28.40
2017,09,03,13,34,28.50
2017,09,03,13,35,28.60
2017,09,03,13,36,28.60
2017,09,03,13,37,28.60
2017,09,03,13,38,28.70
2017,09,03,13,39,28.70
2017,09,03,13,40,28.80
2017,09,03,13,41,28.90
2017,09,03,13,42,29.00
2017,09,03,13,43,29.10
2017,09,03,13,44,29.10
2017,09,03,13,45,29.20
2017,09,03,13,46,29.20
2017,09,03,13,47,29.20
2017,09,03,13,48,29.20
2017,09,03,13,49,29.10
2017,09,03,13,50,29.10
2017,09,03,13,51,29.10
2017,09,03,13,52,29.00
2017,09,03,13,53,29.00
2017,09,03,13,54,28.90
2017,09,03,13,55,28.90
2017,09,03,13,56,28.90
2017,09,03,13,57,28.90
2017,09,03,13,58,28.90
2017,09,03,13,59,28.90
2017,09,03,14,00,28.90
2017,09,03,14,01,28.90
2017,09,03,14,02,28.90
2017,09,03,14,03,28.90
2017,09,03,14,04,28.90
2017,09,03,14,05,29.00
2017,09,03,14,06,29.00
2017,09,03,14,07,29.10
2017,09,03,14,08,29.10
2017,09,03,14,09,29.10
2017,09,03,14,10,29.10
2017,09,03,14,11,29.10
2017,09,03,14,12,29.10
2017,09,03,14,13,29.00
2017,09,03,14,14,29.00
2017,09,03,14,15,29.00
2017,09,03,14,16,29.00
2017,09,03,14,17,28.90
2017,09,03,14,18,28.90
2017,09,03,14,19,28.90
2017,09,03,14,20,28.90
2017,09,03,14,21,28.90
2017,09,03,14,22,28.80
2017,09,03,14,23,28.80
2017,09,03,14,24,28.80
2017,09,03,14,25,28.80
2017,09,03,14,26,28.90
2017,09,03,14,27,28.90
2017,09,03,14,28,28.90
2017,09,03,14,29,28.90
2017,09,03,14,30,29.00
2017,09,03,14,31,29.00
2017,09,03,14,32,29.10
2017,09,03,14,33,29.10
2017,09,03,14,34,29.10
2017,09,03,14,35,29.10
2017,09,03,14,36,29.10
2017,09,03,14,37,29.10
2017,09,03,14,38,29.10
2017,09,03,14,39,29.10
2017,09,03,14,40,29.10
2017,09,03,14,41,29.10
2017,09,03,14,42,29.10
2017,09,03,14,43,29.00
2017,09,03,14,44,29.00
2017,09,03,14,45,29.10
2017,09,03,14,46,29.10
2017,09,03,14,47,29.10
2017,09,03,14,48,29.20
2017,09,03,14,49,29.20
2017,09,03,14,50,29.30
2017,09,03,14,51,29.30
2017,09,03,14,52,29.30
2017,09,03,14,53,29.30
2017,09,03,14,54,29.30
2017,09,03,14,55,29.30
2017,09,03,14,56,29.30
2017,09,03,14,57,29.30
2017,09,03,14,58,29.40
2017,09,03,14,59,29.50
2017,09,03,15,00,29.50
2017,09,03,15,01,29.60
2017,09,03,15,02,29.60
2017,09,03,15,03,29.50
2017,09,03,15,04,29.50
2017,09,03,15,05,29.40
2017,09,03,15,06,29.40
2017,09,03,15,07,29.40
2017,09,03,15,08,29.40
2017,09,03,15,09,29.50
2017,09,03,15,10,29.50
2017,09,03,15,11,29.50
2017,09,03,15,12,29.40
2017,09,03,15,13,29.40
2017,09,03,15,14,29.50
2017,09,03,15,15,29.50
2017,09,03,15,16,29.50
2017,09,03,15,17,29.60
2017,09,03,15,18,29.70
2017,09,03,15,19,29.70
2017,09,03,15,20,29.80
2017,09,03,15,21,29.80
2017,09,03,15,22,29.80
2017,09,03,15,23,29.80
2017,09,03,15,24,29.80
2017,09,03,15,25,29.80
2017,09,03,15,26,29.80
2017,09,03,15,27,29.70
2017,09,03,15,28,29.70
2017,09,03,15,29,29.70
2017,09,03,15,30,29.70
2017,09,03,15,31,29.70
2017,09,03,15,32,29.60
2017,09,03,15,33,29.60
2017,09,03,15,34,29.60
2017,09,03,15,35,29.70
2017,09,03,15,36,29.70
2017,09,03,15,37,29.70
2017,09,03,15,38,29.80
2017,09,03,15,39,29.80
2017,09,03,15,40,29.80
2017,09,03,15,41,29.70
2017,09,03,15,42,29.60
2017,09,03,15,43,29.50
2017,09,03,15,44,29.50
2017,09,03,15,45,29.40
2017,09,03,15,46,29.40
2017,09,03,15,47,29.30
2017,09,03,15,48,29.30
2017,09,03,15,49,29.30
2017,09,03,15,50,29.30
2017,09,03,15,51,29.30
2017,09,03,15,52,29.40
2017,09,03,15,53,29.40
2017,09,03,15,54,29.50
2017,09,03,15,55,29.50
2017,09,03,15,56,29.50
2017,09,03,15,57,29.60
2017,09,03,15,58,29.60
2017,09,03,15,59,29.60
2017,09,03,16,00,29.60
2017,09,03,16,01,29.70
2017,09,03,16,02,29.70
2017,09,03,16,03,29.80
2017,09,03,16,04,29.80
2017,09,03,16,05,29.80
2017,09,03,16,06,29.90
2017,09,03,16,07,29.90
2017,09,03,16,08,30.00
2017,09,03,16,09,30.00
2017,09,03,16,10,30.10
2017,09,03,16,11,30.20
2017,09,03,16,12,30.20
2017,09,03,16,13,30.30
2017,09,03,16,14,30.30
2017,09,03,16,15,30.40
2017,09,03,16,16,30.40
2017,09,03,16,17,30.50
2017,09,03,16,18,30.60
2017,09,03,16,19,30.70
2017,09,03,16,20,30.70
2017,09,03,16,21,30.70
2017,09,03,16,22,30.80
2017,09,03,16,23,30.80
2017,09,03,16,24,30.80
2017,09,03,16,25,30.80
2017,09,03,16,26,30.90
2017,09,03,16,27,30.90
2017,09,03,16,28,30.90
2017,09,03,16,29,30.90
2017,09,03,16,30,31.00
2017,09,03,16,31,31.00
2017,09,03,16,32,31.00
2017,09,03,16,33,31.10
2017,09,03,16,34,31.10
2017,09,03,16,35,31.10
2017,09,03,16,36,31.10
2017,09,03,16,37,31.10
2017,09,03,16,38,31.10
2017,09,03,16,39,31.20
2017,09,03,16,40,31.20
2017,09,03,16,41,31.30
2017,09,03,16,42,31.30
2017,09,03,16,43,31.30
2017,09,03,16,44,31.30
2017,09,03,16,45,31.30
2017,09,03,16,46,31.30
2017,09,03,16,47,31.20
2017,09,03,16,48,31.20
2017,09,03,16,49,31.10
2017,09,03,16,50,31.10
2017,09,03,16,51,31.00
2017,09,03,16,52,31.00
2017,09,03,16,53,30.90
2017,09,03,16,54,30.90
2017,09,03,16,55,30.80
2017,09,03,16,56,30.80
2017,09,03,16,57,30.80
2017,09,03,16,58,30.80
2017,09,03,16,59,30.80
2017,09,03,17,00,30.80
2017,09,03,17,01,30.80
2017,09,03,17,02,30.80
2017,09,03,17,03,30.80
2017,09,03,17,04,30.80
2017,09,03,17,05,30.80
2017,09,03,17,06,30.80
2017,09,03,17,07,30.80
2017,09,03,17,08,30.80
2017,09,03,17,09,30.80
2017,09,03,17,10,30.80
2017,09,03,17,11,30.70
2017,09,03,17,12,30.70
2017,09,03,17,13,30.60
2017,09,03,17,14,30.60
2017,09,03,17,15,30.50
2017,09,03,17,16,30.50
2017,09,03,17,17,30.40
2017,09,03,17,18,30.30
2017,09,03,17,19,30.30